Location: Taipo
(41.0000°S, 175.9500°E)
Time: 12:12:53
(UTC+00:00)

Cosmos 1470 - Pass Details

Date: 18 April 2024
Orbit: 489 x 508 km, 82.5° (Epoch: 24 May)

Event Time Altitude Azimuth Distance (km) Brightness Sun altitude
Rises 17:14:03 0° 358° (N) 2,591 6.2 -18.8°
Reaches altitude 10° 17:16:09 10° 360° (N) 1,712 5.3 -18.5°
Maximum altitude 17:19:53 73° 83° (E) 534 2.8 -17.7°
Drops below altitude 10° 17:23:40 10° 168° (SSE) 1,727 5.5 -17.0°
Sets 17:25:48 0° 170° (S) 2,617 6.4 -16.6°
